{"data":{"norad_id":67282,"epoch":"2026-05-25T03:40:36.283008Z","epoch_age_seconds":68632,"freshness":"FRESH","line1":"1 67282U 25313AL  26145.15319772  .00005204  00000+0  22544-3 0  9992","line2":"2 67282  97.3931 220.2423 0012226  83.2976 276.9651 15.22763961 22453","mean_motion":15.22763961,"eccentricity":0.0012226,"inclination_deg":97.3931,"raan_deg":220.2423,"arg_perigee_deg":83.2976,"mean_anomaly_deg":276.9651,"bstar":0.00022544,"rev_number":2245,"period_min":94.564885752507,"perigee_km":489.10187996642,"apogee_km":505.91420722702,"semimajor_km":6875.6450435967,"source":"CELESTRAK","updated_at":"2026-05-25T13:38:06.853794Z"}}